Cecil Field, FL

11:55 AM EDT on September 23, 2017 (GMT -0400)
Cecil

Weather History for KVQQ - June, 2013

Change the Weather History Date:

Sunday, June 16, 2013

  Actual Average (KNIP) Record (KNIP)
Temperature  
Mean Temperature 76 °F -  
Max Temperature 86 °F 87 °F 100 °F (1998)
Min Temperature 66 °F 72 °F 68 °F (2002)
Cooling Degree Days 11    
Growing Degree Days 26 (Base 50)    
Moisture  
Dew Point 70 °F    
Average Humidity 88    
Maximum Humidity 100    
Minimum Humidity 66    
Precipitation  
Precipitation 0.00 in - - ()
Sea Level Pressure  
Sea Level Pressure 30.10 in    
Wind  
Wind Speed 2 mph (ESE)    
Max Wind Speed 14 mph    
Max Gust Speed -    
Visibility 9 miles    
Events      
Averages and records for this station are not official NWS values.
T = Trace of Precipitation, MM = Missing Value Source: NWS Daily Summary

Daily Weather History Graph

Daily Weather History Graph

Search for Another Location

Airport or City:

Trip Planner

Search our weather history database for the weather conditions in past years. The results will help you decide how hot, cold, wet, or windy it might be!

Date:

Astronomy

Jun. 16, 2013 Rise Set
Actual Time 6:25 AM EDT 8:31 PM EDT
Civil Twilight 5:58 AM EDT 8:58 PM EDT
Nautical Twilight 5:24 AM EDT 9:32 PM EDT
Astronomical Twilight 4:48 AM EDT 10:07 PM EDT
Moon 1:30 PM EDT (6/16) 1:02 AM EDT (6/16)
Length of Visible Light 15h 00m
Length of Day
14h 05m
Waxing Crescent, 49% of the Moon is Illuminated
Jun 16
Waxing Crescent
Jun 16
First Quarter
Jun 23
Full
Jun 30
Last Quarter
Jul 8
New

Hourly Weather History & Observations

Time (EDT) Temp. Heat Index Dew Point Humidity Pressure Visibility Wind Dir Wind Speed Gust Speed Precip Events Conditions
12:15 AM 69.8 °F - 68.0 °F 94% 30.11 in 10.0 mi Calm Calm - N/A   Clear
12:35 AM 68.0 °F - 68.0 °F 100% 30.11 in 10.0 mi Calm Calm - N/A   Clear
12:55 AM 68.0 °F - 68.0 °F 100% 30.11 in 10.0 mi Calm Calm - N/A   Partly Cloudy
1:15 AM 68.0 °F - 68.0 °F 100% 30.11 in 10.0 mi Calm Calm - N/A   Clear
1:35 AM 68.0 °F - 68.0 °F 100% 30.11 in 10.0 mi Calm Calm - N/A   Clear
1:55 AM 68.0 °F - 68.0 °F 100% 30.11 in 10.0 mi Calm Calm - N/A   Clear
2:15 AM 68.0 °F - 68.0 °F 100% 30.11 in 10.0 mi Calm Calm - N/A   Clear
2:35 AM 68.0 °F - 68.0 °F 100% 30.11 in 8.0 mi Calm Calm - N/A   Clear
2:55 AM 68.0 °F - 68.0 °F 100% 30.11 in 10.0 mi Calm Calm - N/A   Clear
3:15 AM 68.0 °F - 68.0 °F 100% 30.11 in 8.0 mi Calm Calm - N/A   Clear
3:35 AM 68.0 °F - 68.0 °F 100% 30.11 in 9.0 mi Calm Calm - N/A   Clear
3:55 AM 68.0 °F - 68.0 °F 100% 30.10 in 7.0 mi Calm Calm - N/A   Partly Cloudy
4:15 AM 68.0 °F - 68.0 °F 100% 30.11 in 9.0 mi Calm Calm - N/A   Mostly Cloudy
4:35 AM 68.0 °F - 68.0 °F 100% 30.10 in 8.0 mi Calm Calm - N/A   Mostly Cloudy
4:55 AM 66.2 °F - 66.2 °F 100% 30.10 in 7.0 mi Calm Calm - N/A   Clear
5:15 AM 66.2 °F - 66.2 °F 100% 30.10 in 7.0 mi Calm Calm - N/A   Clear
5:35 AM 66.2 °F - 66.2 °F 100% 30.11 in 7.0 mi Calm Calm - N/A   Clear
5:55 AM 66.2 °F - 66.2 °F 100% 30.11 in 8.0 mi Calm Calm - N/A   Clear
6:15 AM 66.2 °F - 66.2 °F 100% 30.12 in 7.0 mi Calm Calm - N/A   Clear
6:35 AM 66.2 °F - 66.2 °F 100% 30.11 in 5.0 mi Calm Calm - N/A   Clear
6:50 AM 66.2 °F - 66.2 °F 100% 30.11 in 7.0 mi Calm Calm - N/A   Clear
7:50 AM 69.8 °F - 69.8 °F 100% 30.13 in 7.0 mi Calm Calm - N/A   Clear
8:50 AM 77.0 °F - 71.6 °F 83% 30.14 in 10.0 mi East 8.1 mph - N/A   Clear
9:50 AM 80.6 °F 84.6 °F 71.6 °F 74% 30.15 in 10.0 mi ESE 6.9 mph - N/A   Partly Cloudy
10:50 AM 82.4 °F 88.2 °F 73.4 °F 74% 30.13 in 10.0 mi ESE 5.8 mph - N/A   Mostly Cloudy
11:50 AM 84.2 °F 89.6 °F 71.6 °F 66% 30.13 in 10.0 mi ESE 5.8 mph - N/A   Mostly Cloudy
12:50 PM 84.2 °F 89.6 °F 71.6 °F 66% 30.11 in 10.0 mi ESE 6.9 mph - N/A   Mostly Cloudy
1:50 PM 84.2 °F 90.9 °F 73.4 °F 70% 30.11 in 10.0 mi ESE 6.9 mph - N/A   Scattered Clouds
2:50 PM 82.4 °F 87.2 °F 71.6 °F 70% 30.09 in 10.0 mi East 9.2 mph - N/A   Mostly Cloudy
3:50 PM 86.0 °F 93.4 °F 73.4 °F 66% 30.07 in 10.0 mi East 11.5 mph - N/A   Scattered Clouds
4:50 PM 84.2 °F 89.6 °F 71.6 °F 66% 30.06 in 10.0 mi ESE 10.4 mph - N/A   Scattered Clouds
5:50 PM 84.2 °F 89.6 °F 71.6 °F 66% 30.06 in 10.0 mi East 13.8 mph - N/A   Partly Cloudy
6:50 PM 82.4 °F 87.2 °F 71.6 °F 70% 30.07 in 10.0 mi ESE 12.7 mph - N/A   Partly Cloudy
7:50 PM 80.6 °F 84.6 °F 71.6 °F 74% 30.08 in 10.0 mi ESE 10.4 mph - N/A   Partly Cloudy
8:15 PM 80.6 °F 84.6 °F 71.6 °F 74% 30.08 in 10.0 mi ESE 3.5 mph - N/A   Clear
8:35 PM 78.8 °F - 71.6 °F 78% 30.08 in 10.0 mi East 4.6 mph - N/A   Clear
8:55 PM 77.0 °F - 71.6 °F 83% 30.08 in 10.0 mi ESE 3.5 mph - N/A   Scattered Clouds
9:15 PM 77.0 °F - 71.6 °F 83% 30.09 in 10.0 mi ESE 3.5 mph - N/A   Overcast
9:35 PM 77.0 °F - 71.6 °F 83% 30.09 in 10.0 mi Calm Calm - N/A   Overcast
9:55 PM 77.0 °F - 73.4 °F 89% 30.09 in 10.0 mi Calm Calm - N/A   Scattered Clouds
10:15 PM 77.0 °F - 73.4 °F 89% 30.10 in 10.0 mi Calm Calm - N/A   Partly Cloudy
10:35 PM 77.0 °F - 73.4 °F 89% 30.10 in 10.0 mi SE 3.5 mph - N/A   Partly Cloudy
10:55 PM 77.0 °F - 73.4 °F 89% 30.10 in 10.0 mi SE 3.5 mph - N/A   Scattered Clouds
11:15 PM 77.0 °F - 73.4 °F 89% 30.11 in 10.0 mi SE 3.5 mph - N/A   Scattered Clouds
11:35 PM 77.0 °F - 73.4 °F 89% 30.11 in 10.0 mi Calm Calm - N/A   Partly Cloudy
11:55 PM 77.0 °F - 73.4 °F 89% 30.11 in 10.0 mi Calm Calm - N/A   Scattered Clouds